Location: Horowhenua
(40.7500°S, 175.3333°E)
Time: 04:52:48
(UTC+00:00)

NOSS 3-1 (A) - Pass Details

Date: 28 January 2023
Orbit: 689 x 1522 km, 63.4° (Epoch: 31 March)

Event Time Altitude Azimuth Distance (km) Brightness Sun altitude
Rises 15:10:25 0° 221° (SW) 3,729 6.7 -20.5°
Reaches altitude 10° 15:13:24 10° 229° (SW) 2,640 5.8 -20.1°
Maximum altitude 15:18:46 35° 293° (WNW) 1,295 3.7 -19.5°
Enters shadow 15:18:59 35° 298° (WNW) 1,292 3.7 -19.4°
